Content
SEND FEEDBACK

Daily
Averages
Monthly
Summary
United Kingdom

LONDON, ENGLAND


Home > Europe > United Kingdom > England
Elevation: 61 meters     Latitude: 51 09N     Longitude: 000 11W

WEATHER
 
SELECT A DAY
Number of Records: 297,145;   Date Range: 7/1/96 - 10/20/14
 
SHARE

PRINT THIS DATA

[ ← Previous Day ]
WEATHER ALMANAC - 1 MARCH, 2013
[ Next Day → ]
[ °F ]   °C
Weather ElementAverageHighLow
Temperature4.2 °C6 °C (10:50 am)2 °C (12:50 am)
Dewpoint0.8 °C4 °C (9:20 am)-2 °C (9:20 pm)
Humidity79.3 %93 % (1:20 am)65 % (4:20 pm)
Barometer1028.1 hPa1029.1 hPa (12:50 am)1027.1 hPa (3:20 am)
Wind Speed17.2 km/h24.1 km/h (11:20 am)
Wind Gust40.7 km/h (2:20 pm)
Weather ElementAverage
Visibility8.5 km
Wind DirectionNNE (36 °)

Weather ElementTotal
Precipitation---
Heating Degree Days14.3 (Base 18.3)
Averaged from 47 records on 1 March, 2013
WEATHER CONDITIONS BREAKOUT
WIND DIRECTION BREAKOUT
WEATHER BY HOUR - 1 MARCH, 2013
[ °F ]   °C
Local TimeTemperatureDewpointHumidityBarometerVisibilityWind DirectionWind SpeedGust SpeedPrecipitationEventsConditions
12:50 AM2 °C0 °C87 %1029.1 hPa6.9 kmNNE (30°)16.7 km/hMostly Cloudy
1:20 AM2 °C1 °C93 %1029.1 hPa6.9 kmNNE (30°)14.8 km/hOvercast
1:50 AM2 °C1 °C93 %1028.1 hPa6 kmNNE (20°)14.8 km/hOvercast
2:20 AM2 °C1 °C93 %1028.1 hPa6 kmNNE (20°)14.8 km/hMostly Cloudy
2:50 AM3 °C1 °C87 %1028.1 hPa8 kmNNE (30°)20.4 km/hOvercast
3:20 AM3 °C1 °C87 %1027.1 hPa10 kmNNE (30°)18.5 km/hOvercast
3:50 AM3 °C1 °C87 %1027.1 hPa10 kmNNE (30°)14.8 km/hOvercast
4:20 AM4 °C1 °C81 %1027.1 hPa10 kmNNE (30°)16.7 km/hOvercast
4:50 AM3 °C1 °C87 %1027.1 hPa8 kmNNE (20°)13 km/hOvercast
5:20 AM3 °C1 °C87 %1027.1 hPa6 kmNorth (10°)13 km/hOvercast
5:50 AM3 °C2 °C93 %1027.1 hPa6 kmNorth (10°)11.1 km/hOvercast
6:20 AM3 °C2 °C93 %1027.1 hPa6 kmNorth (10°)11.1 km/hOvercast
6:50 AM3 °C2 °C93 %1027.1 hPa2.6 kmNorth (10°)11.1 km/hHaze
7:20 AM3 °C2 °C93 %1028.1 hPa2.4 kmNorth (10°)13 km/hHaze
7:50 AM3 °C2 °C93 %1028.1 hPa1.9 kmNorth (10°)13 km/hLight Drizzle
8:20 AM4 °C3 °C93 %1028.1 hPa2.7 kmNNE (20°)9.3 km/hLight Drizzle
8:50 AM4 °C3 °C93 %1028.1 hPaNNE (30°)9.3 km/hRainLight Rain
9:20 AM5 °C4 °C93 %1028.1 hPa6 kmNNE (30°)9.3 km/hMostly Cloudy
9:50 AM5 °C4 °C93 %1028.1 hPa10 kmNE (40°)14.8 km/hMostly Cloudy
10:20 AM5 °C4 °C93 %1028.1 hPa6.9 kmNE (40°)16.7 km/hRainLight Rain
10:50 AM6 °C4 °C87 %1028.1 hPa10 kmNE (50°)20.4 km/hMostly Cloudy
11:20 AM6 °C3 °C81 %1028.1 hPa10 kmNE (50°)24.1 km/hMostly Cloudy
11:50 AM6 °C3 °C81 %1028.1 hPa10 kmNE (50°)22.2 km/hMostly Cloudy
12:20 PM6 °C2 °C76 %1028.1 hPa10 kmNE (50°)22.2 km/hMostly Cloudy
12:50 PM6 °C2 °C76 %1028.1 hPa10 kmENE (60°)16.7 km/hMostly Cloudy
1:20 PM6 °C2 °C76 %1028.1 hPa10 kmNE (50°)18.5 km/hMostly Cloudy
1:50 PM6 °C2 °C76 %1028.1 hPa10 kmNE (50°)20.4 km/hMostly Cloudy
2:20 PM6 °C1 °C70 %1028.1 hPa10 kmNE (50°)22.2 km/h40.7 km/hMostly Cloudy
2:50 PM5 °C0 °C70 %1028.1 hPa10 kmNE (50°)24.1 km/hMostly Cloudy
3:20 PM5 °C0 °C70 %1028.1 hPa10 kmNE (50°)22.2 km/hMostly Cloudy
3:50 PM5 °C0 °C70 %1028.1 hPa10 kmNE (50°)18.5 km/hMostly Cloudy
4:20 PM5 °C-1 °C65 %1028.1 hPa10 kmNNE (30°)24.1 km/hMostly Cloudy
4:50 PM5 °C-1 °C65 %1028.1 hPa10 kmNE (40°)20.4 km/hMostly Cloudy
5:20 PM5 °C-1 °C65 %1028.1 hPa10 kmNE (50°)13 km/hMostly Cloudy
5:50 PM5 °C-1 °C65 %1028.1 hPa10 kmNE (40°)13 km/hMostly Cloudy
6:20 PM5 °C-1 °C65 %1029.1 hPa10 kmNNE (30°)16.7 km/hMostly Cloudy
6:50 PM5 °C-1 °C65 %1029.1 hPa10 kmNE (40°)16.7 km/hMostly Cloudy
7:20 PM5 °C0 °C70 %1029.1 hPa10 kmNE (50°)16.7 km/hMostly Cloudy
7:50 PM5 °C-1 °C65 %1029.1 hPa10 kmNE (40°)20.4 km/hMostly Cloudy
8:20 PM4 °C0 °C75 %1029.1 hPa10 kmNE (50°)18.5 km/hMostly Cloudy
8:50 PM4 °C-1 °C70 %1029.1 hPa10 kmNE (50°)20.4 km/hMostly Cloudy
9:20 PM4 °C-2 °C65 %1029.1 hPa10 kmNNE (30°)22.2 km/hMostly Cloudy
9:50 PM4 °C-2 °C65 %1029.1 hPa10 kmNE (40°)24.1 km/hMostly Cloudy
10:20 PM4 °C-1 °C70 %1029.1 hPa10 kmNE (50°)16.7 km/hMostly Cloudy
10:50 PM4 °C-1 °C70 %1029.1 hPa10 kmNE (40°)18.5 km/hMostly Cloudy
11:20 PM3 °C-2 °C70 %1029.1 hPa10 kmNE (40°)22.2 km/hMostly Cloudy
11:50 PM3 °C-2 °C70 %1029.1 hPa10 kmNE (50°)18.5 km/hMostly Cloudy
Hourly data recorded from EGKK, located 0 kilometers away from London, England







STORIES FROM OUR PARTNERS